Akron, CO

1:41 PM MST on December 03, 2016 (GMT -0700)
Akron-Washington County

Weather History for KAKO - December, 2013

Change the Weather History Date:

Saturday, December 14, 2013

  Actual Average Record
Temperature  
Mean Temperature 33 °F 28 °F  
Max Temperature 44 °F 39 °F 63 °F (1969)
Min Temperature 22 °F 16 °F -21 °F (1940)
Degree Days  
Heating Degree Days 32    
Month to date heating degree days 620  
Cooling Degree Days 0    
Month to date cooling degree days 0  
Moisture  
Dew Point 19 °F    
Average Humidity 64    
Maximum Humidity 96    
Minimum Humidity 31    
Precipitation  
Precipitation T in 0.01 in 0.44 in (1956)
Month to date precipitation 0.02 0.22  
Year to date precipitation 16.98 16.56  
Sea Level Pressure  
Sea Level Pressure 30.23 in    
Wind  
Wind Speed 12 mph (WNW)    
Max Wind Speed 22 mph    
Max Gust Speed 28 mph    
Visibility 10 miles    
Events      
T = Trace of Precipitation, MM = Missing Value Source: NWS Daily Summary

Daily Weather History Graph

Daily Weather History Graph

Search for Another Location

Airport or City:

Trip Planner

Search our weather history database for the weather conditions in past years. The results will help you decide how hot, cold, wet, or windy it might be!

Date:

Astronomy

Dec. 14, 2013 Rise Set
Actual Time 7:07 AM MST 4:27 PM MST
Civil Twilight 6:36 AM MST 4:58 PM MST
Nautical Twilight 6:02 AM MST 5:32 PM MST
Astronomical Twilight 5:29 AM MST 6:05 PM MST
Moon 2:51 PM MST (12/14) 4:30 AM MST (12/14)
Length of Visible Light 10h 21m
Length of Day
9h 20m
Waxing Gibbous, 94% of the Moon is Illuminated
Dec 14
Waxing Gibbous
Dec 17
Full
Dec 25
Last Quarter
Jan 1
New
Jan 7
First Quarter

Hourly Weather History & Observations

Time (MST) Temp. Windchill Dew Point Humidity Pressure Visibility Wind Dir Wind Speed Gust Speed Precip Events Conditions
12:06 AM 27.0 °F 17.3 °F 26.1 °F 96% 30.11 in 6.0 mi NW 10.4 mph - 0.00 in   Overcast
12:41 AM 26.1 °F 15.6 °F 25.0 °F 96% 30.12 in 6.0 mi NNW 11.5 mph - 0.00 in   Mostly Cloudy
12:53 AM 27.0 °F 15.6 °F 25.0 °F 92% 30.15 in 10.0 mi NW 13.8 mph - 0.00 in   Mostly Cloudy
1:53 AM 28.9 °F 18.2 °F 26.1 °F 89% 30.17 in 10.0 mi NW 13.8 mph - N/A   Overcast
2:28 AM 25.0 °F 14.2 °F 23.0 °F 92% 30.14 in 10.0 mi NNW 11.5 mph - N/A   Scattered Clouds
2:53 AM 24.1 °F 13.1 °F 21.9 °F 91% 30.22 in 10.0 mi NW 11.5 mph - N/A   Clear
3:53 AM 23.0 °F 15.8 °F 21.0 °F 92% 30.23 in 10.0 mi NNW 5.8 mph - N/A   Mostly Cloudy
4:53 AM 26.1 °F 14.0 °F 23.0 °F 88% 30.25 in 10.0 mi NW 15.0 mph - N/A   Mostly Cloudy
5:53 AM 27.0 °F 16.7 °F 21.0 °F 78% 30.26 in 10.0 mi NW 11.5 mph - N/A   Overcast
6:53 AM 26.1 °F 16.8 °F 19.0 °F 75% 30.30 in 10.0 mi WNW 9.2 mph - N/A   Overcast
7:53 AM 26.1 °F 14.0 °F 19.0 °F 75% 30.31 in 10.0 mi WNW 15.0 mph - N/A   Mostly Cloudy
8:53 AM 28.0 °F 16.1 °F 19.9 °F 72% 30.32 in 10.0 mi West 16.1 mph - N/A   Clear
9:53 AM 33.1 °F 23.0 °F 19.9 °F 59% 30.33 in 10.0 mi WNW 15.0 mph - N/A   Clear
10:53 AM 37.9 °F 29.6 °F 21.0 °F 51% 30.30 in 10.0 mi WNW 13.8 mph - N/A   Clear
11:53 AM 42.1 °F 34.5 °F 18.0 °F 38% 30.26 in 10.0 mi North 15.0 mph - N/A   Scattered Clouds
12:53 PM 43.0 °F 36.0 °F 16.0 °F 34% 30.23 in 10.0 mi NW 13.8 mph - N/A   Clear
1:53 PM 44.1 °F 36.5 °F 15.1 °F 31% 30.21 in 10.0 mi NNW 17.3 mph - N/A   Clear
2:53 PM 43.0 °F 37.2 °F 15.1 °F 32% 30.23 in 10.0 mi NNW 10.4 mph - N/A   Clear
3:53 PM 39.0 °F 35.7 °F 15.1 °F 38% 30.24 in 10.0 mi NNW 4.6 mph - N/A   Clear
4:53 PM 34.0 °F 31.0 °F 15.1 °F 46% 30.25 in 10.0 mi SW 3.5 mph - N/A   Clear
5:53 PM 28.9 °F 21.9 °F 15.1 °F 56% 30.26 in 10.0 mi SSW 6.9 mph - N/A   Clear
6:53 PM 30.9 °F 21.7 °F 16.0 °F 54% 30.26 in 10.0 mi SW 11.5 mph - N/A   Clear
7:53 PM 30.9 °F 20.7 °F 16.0 °F 54% 30.25 in 10.0 mi SW 13.8 mph - N/A   Clear
8:53 PM 32.0 °F 22.5 °F 16.0 °F 52% 30.25 in 10.0 mi SW 12.7 mph - N/A   Clear
9:53 PM 33.1 °F 23.9 °F 16.0 °F 50% 30.21 in 10.0 mi SW 12.7 mph - N/A   Clear
10:53 PM 30.0 °F 23.2 °F 16.0 °F 56% 30.20 in 10.0 mi SW 6.9 mph - N/A   Clear
11:53 PM 27.0 °F 16.7 °F 16.0 °F 63% 30.20 in 10.0 mi WSW 11.5 mph - N/A   Clear